Carmi, IL

9:05 PM CST on February 20, 2017 (GMT -0600)
Carmi Municipal

Weather History for KCUL - October, 2012

Change the Weather History Date:

Wednesday, October 17, 2012

  Actual Average (KEHR) Record (KEHR)
Temperature  
Mean Temperature 66 °F -  
Max Temperature 78 °F 68 °F 90 °F (1938)
Min Temperature 55 °F 47 °F 25 °F (1943)
Cooling Degree Days 1    
Growing Degree Days 16 (Base 50)    
Moisture  
Dew Point 53 °F    
Average Humidity 67    
Maximum Humidity 96    
Minimum Humidity 42    
Precipitation  
Precipitation 0.91 in - - ()
Sea Level Pressure  
Sea Level Pressure 29.62 in    
Wind  
Wind Speed 14 mph (South)    
Max Wind Speed 29 mph    
Max Gust Speed 40 mph    
Visibility 9 miles    
Events Rain , Thunderstorm    
Averages and records for this station are not official NWS values.
T = Trace of Precipitation, MM = Missing Value Source: NWS Daily Summary

Daily Weather History Graph

Daily Weather History Graph

Search for Another Location

Airport or City:

Trip Planner

Search our weather history database for the weather conditions in past years. The results will help you decide how hot, cold, wet, or windy it might be!

Date:

Astronomy

Oct. 17, 2012 Rise Set
Actual Time 7:03 AM CDT 6:11 PM CDT
Civil Twilight 6:36 AM CDT 6:37 PM CDT
Nautical Twilight 6:06 AM CDT 7:08 PM CDT
Astronomical Twilight 5:35 AM CDT 7:38 PM CDT
Moon 9:34 AM CDT (10/17) 7:50 PM CDT (10/17)
Length of Visible Light 12h 00m
Length of Day
11h 07m
Waxing Crescent, 7% of the Moon is Illuminated
Oct 17
Waxing Crescent
Oct 21
First Quarter
Oct 29
Full
Nov 6
Last Quarter
Nov 13
New

Hourly Weather History & Observations

Time (CDT) Temp. Dew Point Humidity Pressure Visibility Wind Dir Wind Speed Gust Speed Precip Events Conditions
12:15 AM 61.2 °F 52.2 °F 72% 29.76 in 10.0 mi South 10.4 mph - N/A   Clear
12:35 AM 59.5 °F 52.2 °F 77% 29.76 in 10.0 mi South 10.4 mph - N/A   Clear
12:55 AM 59.4 °F 52.2 °F 77% 29.76 in 7.0 mi South 10.4 mph - N/A   Clear
1:15 AM 58.8 °F 51.8 °F 77% 29.76 in 7.0 mi South 11.5 mph - N/A   Clear
1:35 AM 58.1 °F 51.4 °F 78% 29.76 in 10.0 mi South 9.2 mph - N/A   Clear
1:55 AM 58.3 °F 51.4 °F 78% 29.76 in 10.0 mi South 9.2 mph - N/A   Clear
2:15 AM 58.1 °F 50.9 °F 77% 29.75 in 10.0 mi South 9.2 mph - N/A   Clear
2:35 AM 57.7 °F 50.9 °F 78% 29.75 in 10.0 mi South 9.2 mph - N/A   Clear
2:55 AM 56.5 °F 50.2 °F 79% 29.74 in 10.0 mi SSE 9.2 mph - N/A   Clear
3:15 AM 56.5 °F 50.2 °F 79% 29.74 in 10.0 mi South 9.2 mph - N/A   Clear
3:35 AM 56.3 °F 50.0 °F 79% 29.73 in 10.0 mi SSE 8.1 mph - N/A   Clear
3:55 AM 56.5 °F 50.4 °F 80% 29.72 in 10.0 mi South 10.4 mph - N/A   Clear
4:15 AM 56.5 °F 50.5 °F 80% 29.72 in 10.0 mi SSE 11.5 mph - N/A   Clear
4:35 AM 56.8 °F 50.9 °F 80% 29.71 in 10.0 mi SSE 10.4 mph - N/A   Clear
4:55 AM 56.3 °F 50.9 °F 82% 29.71 in 10.0 mi SSE 9.2 mph - N/A   Clear
5:15 AM 55.6 °F 50.9 °F 84% 29.71 in 10.0 mi SSE 8.1 mph - N/A   Clear
5:35 AM 55.6 °F 50.9 °F 84% 29.71 in 10.0 mi SSE 9.2 mph - N/A   Clear
5:55 AM 55.8 °F 50.9 °F 84% 29.71 in 10.0 mi South 9.2 mph - N/A   Clear
6:15 AM 56.3 °F 50.9 °F 82% 29.71 in 10.0 mi South 10.4 mph - N/A   Clear
6:35 AM 56.3 °F 50.9 °F 82% 29.71 in 10.0 mi SSE 10.4 mph - N/A   Scattered Clouds
6:55 AM 55.8 °F 50.9 °F 84% 29.71 in 10.0 mi SSE 11.5 mph - N/A   Scattered Clouds
7:15 AM 56.8 °F 51.8 °F 83% 29.71 in 7.0 mi SSE 10.4 mph - N/A   Scattered Clouds
7:35 AM 57.9 °F 52.7 °F 83% 29.70 in 10.0 mi SSE 10.4 mph - N/A   Mostly Cloudy
7:55 AM 59.2 °F 53.1 °F 80% 29.71 in 7.0 mi SSE 13.8 mph - N/A   Mostly Cloudy
8:15 AM 60.4 °F 53.1 °F 77% 29.71 in 10.0 mi South 13.8 mph 18.4 mph N/A   Overcast
8:35 AM 62.4 °F 53.2 °F 72% 29.71 in 10.0 mi South 15.0 mph 20.7 mph N/A   Overcast
8:55 AM 62.6 °F 52.9 °F 70% 29.70 in 10.0 mi South 17.3 mph - N/A   Overcast
9:15 AM 63.3 °F 52.7 °F 68% 29.70 in 10.0 mi South 18.4 mph 23.0 mph N/A   Overcast
9:35 AM 64.6 °F 53.2 °F 67% 29.70 in 10.0 mi South 17.3 mph - N/A   Overcast
9:55 AM 64.8 °F 52.7 °F 65% 29.70 in 7.0 mi South 18.4 mph 24.2 mph N/A   Overcast
10:15 AM 65.3 °F 52.9 °F 64% 29.69 in 10.0 mi South 20.7 mph 26.5 mph N/A   Overcast
10:35 AM 66.0 °F 53.1 °F 63% 29.69 in 10.0 mi South 17.3 mph 25.3 mph N/A   Overcast
10:55 AM 65.8 °F 53.1 °F 63% 29.69 in 10.0 mi South 15.0 mph - N/A   Overcast
11:15 AM 66.2 °F 53.1 °F 63% 29.68 in 10.0 mi South 16.1 mph - N/A   Overcast
11:55 AM 70.9 °F 54.0 °F 55% 29.67 in 10.0 mi South 25.3 mph 31.1 mph N/A   Mostly Cloudy
12:15 PM 71.4 °F 53.4 °F 53% 29.65 in 10.0 mi South 21.9 mph 34.5 mph N/A   Clear
12:35 PM 73.2 °F 53.2 °F 49% 29.65 in 10.0 mi South 26.5 mph 32.2 mph N/A   Mostly Cloudy
12:55 PM 73.2 °F 54.0 °F 51% 29.63 in 10.0 mi South 18.4 mph 27.6 mph N/A   Scattered Clouds
1:15 PM 73.8 °F 53.4 °F 49% 29.62 in 10.0 mi SSE 24.2 mph 27.6 mph N/A   Scattered Clouds
1:35 PM 75.2 °F 54.0 °F 47% 29.60 in 10.0 mi South 20.7 mph 27.6 mph N/A   Scattered Clouds
1:55 PM 76.6 °F 53.1 °F 44% 29.60 in 10.0 mi South 28.8 mph 40.3 mph N/A   Clear
2:15 PM 75.7 °F 53.2 °F 45% 29.59 in 10.0 mi South 26.5 mph 33.4 mph N/A   Scattered Clouds
2:35 PM 77.0 °F 52.7 °F 43% 29.59 in 10.0 mi South 26.5 mph 32.2 mph N/A   Mostly Cloudy
2:55 PM 77.4 °F 52.9 °F 42% 29.58 in 10.0 mi South 21.9 mph 31.1 mph N/A   Scattered Clouds
3:15 PM 77.7 °F 52.9 °F 42% 29.57 in 10.0 mi South 23.0 mph 31.1 mph N/A   Scattered Clouds
3:35 PM 77.0 °F 52.7 °F 43% 29.56 in 10.0 mi South 23.0 mph 31.1 mph N/A   Scattered Clouds
3:55 PM 76.3 °F 52.3 °F 43% 29.55 in 10.0 mi South 20.7 mph - N/A   Scattered Clouds
4:15 PM 76.1 °F 52.5 °F 44% 29.54 in 10.0 mi South 18.4 mph 26.5 mph N/A   Clear
4:35 PM 75.7 °F 52.5 °F 44% 29.53 in 10.0 mi South 23.0 mph 26.5 mph N/A   Clear
4:55 PM 75.2 °F 52.7 °F 45% 29.52 in 10.0 mi SSE 16.1 mph - N/A   Clear
5:15 PM 74.7 °F 51.3 °F 44% 29.52 in 10.0 mi SSE 19.6 mph 25.3 mph N/A   Clear
5:35 PM 74.8 °F 50.4 °F 42% 29.51 in 10.0 mi SSE 18.4 mph 28.8 mph N/A   Clear
5:55 PM 72.9 °F 50.5 °F 45% 29.49 in 10.0 mi SSE 16.1 mph - N/A   Clear
6:15 PM 71.1 °F 51.1 °F 49% 29.47 in 10.0 mi SSE 16.1 mph - N/A   Clear
6:35 PM 70.3 °F 51.3 °F 51% 29.45 in 10.0 mi SSE 20.7 mph - N/A   Clear
6:55 PM 71.6 °F 49.3 °F 45% 29.43 in 10.0 mi SSE 23.0 mph 31.1 mph N/A   Clear
7:15 PM 72.1 °F 48.0 °F 42% 29.42 in 10.0 mi SSE 24.2 mph 32.2 mph N/A   Scattered Clouds
7:35 PM 71.8 °F 48.2 °F 43% 29.42 in 10.0 mi SSE 23.0 mph 29.9 mph N/A Thunderstorm Mostly Cloudy
7:55 PM 71.8 °F 47.8 °F 43% 29.42 in 10.0 mi SSE 20.7 mph - N/A   Mostly Cloudy
8:15 PM 71.6 °F 49.3 °F 45% 29.41 in 10.0 mi South 24.2 mph 31.1 mph N/A Rain , Thunderstorm Light Thunderstorms and Rain
8:35 PM 65.3 °F 54.9 °F 69% 29.50 in 7.0 mi SSW 20.7 mph 27.6 mph 0.06 in Rain , Thunderstorm Heavy Thunderstorms and Rain
8:55 PM 62.2 °F 58.1 °F 86% 29.56 in 5.0 mi WSW 18.4 mph 23.0 mph 0.19 in Rain , Thunderstorm Heavy Thunderstorms and Rain
9:15 PM 61.9 °F 59.4 °F 91% 29.55 in 4.0 mi West 10.4 mph - 0.19 in Rain , Thunderstorm Heavy Thunderstorms and Rain
9:35 PM 61.3 °F 59.2 °F 93% 29.54 in 4.0 mi SSW 4.6 mph - 0.33 in Rain , Thunderstorm Heavy Thunderstorms and Rain
9:55 PM 60.8 °F 59.0 °F 94% 29.53 in 4.0 mi SE 5.8 mph - 0.44 in Rain Heavy Rain
10:15 PM 60.4 °F 59.0 °F 95% 29.51 in 5.0 mi ESE 6.9 mph - 0.09 in Rain Heavy Rain
10:35 PM 60.3 °F 59.0 °F 96% 29.52 in 7.0 mi SSE 8.1 mph - 0.15 in Rain , Thunderstorm Rain
10:55 PM 60.3 °F 59.0 °F 96% 29.44 in 5.0 mi East 19.6 mph - 0.22 in Rain Rain
11:15 PM 60.1 °F 59.0 °F 96% 29.50 in 10.0 mi South 3.5 mph - 0.01 in   Overcast
11:35 PM 60.4 °F 59.0 °F 95% 29.50 in 10.0 mi South 5.8 mph - 0.01 in Rain Light Rain
11:55 PM 60.8 °F 59.4 °F 95% 29.52 in 5.0 mi SSW 11.5 mph - 0.06 in Rain Heavy Rain